Retour au catalogue

ARIANE 5 DEB

SYLDA

ActifGTO
NORAD 28914·DEBRIS·🇫🇷 France

Lancé Dec 21, 2005 depuis Guiana Space Centre

Loading…

TLE

PériméSource: Space-Track

Époque: Sep 14, 2026, 00:36 UTC

1 28914U 05049D   26257.02538987 -.00000005  00000-0  19644-2 0  9998
2 28914   4.4825 310.0946 7157506 351.7484 110.9776  2.23716289169293

Suivez ARIANE 5 DEB en temps réel avec AllMySat

Download on the App Store